Location: St. Andrews
(45.0670°N, 67.0330°W)
Time: 05:47:57
(UTC-03:00)

Amateur Radio Satellites - All Passes

Search period start: 25 April 2015 05:17
Search period end: 26 April 2015 05:17
Location: St. Andrews, 45.0670°N, 67.0330°W

Satellite Date Start Highest point End Downlink Frequencies (MHz)
Time Altitude Azimuth
AUBIESAT-1 25 Apr 05:19:09 05:22:22 19° 57° (ENE) 05:25:42 437.475
CUSAT 1 25 Apr 05:25:11 05:32:35 73° 262° (W) 05:40:52 437.405
JAS-2 25 Apr 05:45:42 05:52:17 86° 104° (ESE) 05:58:02 435.910
BEESAT 2 25 Apr 05:57:34 06:00:12 16° 325° (NW) 06:02:45 435.950
BEESAT 3 25 Apr 05:57:39 05:59:57 14° 327° (NNW) 06:02:08 437.485
DANDE 25 Apr 05:59:24 06:06:28 54° 265° (W) 06:14:36 436.750
Cosmos 2499 25 Apr 06:02:20 06:09:59 50° 73° (ENE) 06:17:07 435.465 / 435.565
M-CUBED/EXP-1 PRIME 25 Apr 06:08:53 06:13:35 54° 66° (ENE) 06:18:19 437.505
STRAND 1 25 Apr 06:10:32 06:13:49 18° 61° (ENE) 06:17:15 437.568
CUBESAT XI-V 25 Apr 06:21:19 06:25:30 35° 69° (ENE) 06:29:43 437.345
MOZHAYETS 4 25 Apr 06:25:02 06:28:36 21° 269° (W) 06:32:05
HORYU 2 25 Apr 06:37:24 06:40:28 18° 297° (WNW) 06:43:24 437.375
GONETS M04 25 Apr 06:41:14 06:47:40 22° 281° (W) 06:53:42
AUBIESAT-1 25 Apr 06:51:56 06:56:42 68° 254° (WSW) 07:01:29 437.475
AIST 2 25 Apr 06:53:43 06:56:16 15° 327° (NNW) 06:58:43 435.215
AO-7 25 Apr 07:03:04 07:10:53 46° 299° (WNW) 07:18:37 29.400- 29.500
CUSAT 1 25 Apr 07:10:08 07:14:35 16° 277° (W) 07:18:47 437.405
PRISM 25 Apr 07:12:32 07:16:43 77° 75° (ENE) 07:20:53 437.425
CUTE-I 25 Apr 07:13:39 07:18:24 33° 95° (E) 07:23:13 437.470
Cubesat XI-IV 25 Apr 07:22:55 07:27:55 40° 97° (E) 07:32:56 437.490
JAS-2 25 Apr 07:32:04 07:36:27 19° 305° (NW) 07:40:20 435.910
M-CUBED/EXP-1 PRIME 25 Apr 07:45:06 07:48:43 20° 264° (W) 07:52:15 437.505
O/OREOS (USA 219) 25 Apr 07:45:52 07:49:05 19° 50° (NE) 07:52:23 437.305
DANDE 25 Apr 07:47:17 07:48:51 10° 279° (W) 07:49:47 436.750
STRAND 1 25 Apr 07:47:27 07:52:32 69° 257° (WSW) 07:57:40 437.568
Cosmos 2499 25 Apr 07:55:59 08:02:52 34° 275° (W) 08:09:11 435.465 / 435.565
CUBESAT XI-V 25 Apr 07:59:06 08:03:01 26° 267° (W) 08:06:53 437.345
Cosmos 2491 25 Apr 08:25:00 08:28:24 13° 48° (NE) 08:32:23 435.465 / 435.565
PRISM 25 Apr 08:52:14 08:52:47 10° 273° (W) 08:53:06 437.425
CUTE-I 25 Apr 08:53:41 08:58:31 36° 293° (WNW) 09:03:18 437.470
AO-7 25 Apr 08:58:27 09:01:44 13° 321° (NW) 09:04:38 29.400- 29.500
GOMX 1 25 Apr 09:00:10 09:03:51 20° 90° (E) 09:07:50 467.674
Cubesat XI-IV 25 Apr 09:03:18 09:07:55 30° 295° (WNW) 09:12:27 437.490
PCSat 25 Apr 09:04:12 09:09:19 46° 115° (ESE) 09:14:32 145.827
BRITE-PL 25 Apr 09:08:45 09:13:21 35° 96° (E) 09:18:18 437.365/2234.400
O/OREOS (USA 219) 25 Apr 09:24:30 09:28:54 55° 250° (WSW) 09:33:16 437.305
HO-68 25 Apr 09:28:26 09:34:43 32° 94° (E) 09:41:04 435.675
YUBILEINY 25 Apr 09:39:06 09:40:31 11° 72° (ENE) 09:42:41 435.215
DOVE 4 25 Apr 09:39:11 09:43:40 31° 94° (E) 09:48:22 437.250
ANTELSAT 25 Apr 09:40:59 09:42:42 12° 59° (ENE) 09:44:39 437.575/2403.000
COMPASS 1 25 Apr 09:49:09 09:52:36 24° 93° (E) 09:56:06 437.405
Oscar 11 25 Apr 10:00:41 10:02:54 14° 88° (E) 10:05:18 145.826/435.025
DELFI C3 25 Apr 10:12:35 10:14:25 13° 88° (E) 10:16:26 145.870
SEEDS 25 Apr 10:13:15 10:17:27 55° 100° (E) 10:21:35 437.485
Cosmos 2491 25 Apr 10:19:12 10:27:52 57° 75° (ENE) 10:36:34 435.465 / 435.565
CANX-2 25 Apr 10:20:39 10:24:59 88° 104° (ESE) 10:29:15 2200.000
QB50P2 25 Apr 10:20:40 10:22:45 14° 62° (ENE) 10:25:01 145.880/145.840
CINEMA 3 25 Apr 10:27:42 10:32:30 47° 98° (E) 10:37:22 145.822/145.860
TIGRISAT 25 Apr 10:28:51 10:32:50 32° 68° (ENE) 10:36:59 435.000
CUTE 1.7 + AOD 2 25 Apr 10:29:54 10:34:13 82° 284° (WNW) 10:38:28 437.475
CUBEBUG 2 25 Apr 10:31:12 10:35:16 28° 93° (E) 10:39:22 437.445
AAUSAT CUBESAT 2 25 Apr 10:31:47 10:35:57 62° 100° (E) 10:40:04 437.432
UNISAT 6 25 Apr 10:32:44 10:36:52 36° 69° (ENE) 10:41:08 437.425
DX 1 25 Apr 10:34:59 10:35:19 10° 86° (E) 10:35:57 434.975-435.025
GOMX 1 25 Apr 10:37:19 10:42:19 57° 287° (WNW) 10:47:33 467.674
NANOSAT C BR1 25 Apr 10:38:10 10:41:10 20° 65° (ENE) 10:44:17 145.865
POPSAT HIP 1 25 Apr 10:40:57 10:44:05 21° 66° (ENE) 10:47:20 437.405
BRITE-PL 25 Apr 10:47:21 10:51:51 33° 291° (WNW) 10:56:34 437.365/2234.400
PCSat 25 Apr 10:48:05 10:52:57 32° 314° (NW) 10:57:48 145.827
BEESAT 3 25 Apr 10:56:59 10:59:53 18° 38° (NE) 11:02:49 437.485
BEESAT 2 25 Apr 10:57:46 11:00:28 17° 36° (NE) 11:03:14 435.950
UWE-3 25 Apr 10:58:17 11:02:44 41° 97° (E) 11:07:11 435.000/436.395/437.385
BUGSAT 1 25 Apr 11:08:15 11:11:36 27° 68° (ENE) 11:15:03 437.445
FUNcube-1 25 Apr 11:09:21 11:13:44 42° 97° (E) 11:18:05 145.935
POLYITAN 1 25 Apr 11:09:29 11:13:26 41° 71° (ENE) 11:17:28 437.675
DUCHIFAT 1 25 Apr 11:11:12 11:15:07 41° 71° (ENE) 11:19:07 145.980
ANTELSAT 25 Apr 11:14:17 11:18:49 89° 256° (WSW) 11:23:31 437.575/2403.000
HO-68 25 Apr 11:15:49 11:22:48 54° 294° (WNW) 11:29:42 435.675
UKube-1 25 Apr 11:16:06 11:19:46 27° 95° (E) 11:23:29 .
DOVE 4 25 Apr 11:16:49 11:21:27 37° 291° (WNW) 11:26:13 437.250
COMPASS 1 25 Apr 11:24:34 11:28:21 31° 291° (WNW) 11:32:03 437.405
YUBILEINY 25 Apr 11:27:03 11:35:36 58° 91° (E) 11:44:13 435.215
QB50P1 25 Apr 11:28:05 11:32:14 64° 74° (ENE) 11:36:27 145.935-145.965
HUMSAT D 25 Apr 11:34:01 11:38:04 37° 97° (E) 11:42:05 437.325/437.525
ZACube-1 25 Apr 11:34:23 11:39:02 77° 102° (ESE) 11:43:37 437.345
Oscar 11 25 Apr 11:35:14 11:39:33 60° 287° (WNW) 11:43:49 145.826/435.025
VELOX 1 25 Apr 11:37:26 11:40:57 23° 93° (E) 11:44:33 145.980
CUBEBUG 1 25 Apr 11:45:16 11:47:27 14° 88° (E) 11:49:50 437.445
DELFI C3 25 Apr 11:46:00 11:50:00 56° 287° (WNW) 11:53:55 145.870
SEEDS 25 Apr 11:50:12 11:52:52 16° 296° (WNW) 11:55:23 437.485
QB50P2 25 Apr 11:53:59 11:58:11 66° 259° (WSW) 12:02:25 145.880/145.840
AISAT 25 Apr 11:54:43 11:58:50 36° 97° (E) 12:02:58 437.250
AIST 2 25 Apr 11:54:50 11:58:00 20° 38° (NE) 12:01:12 435.215
SO-50 25 Apr 11:57:10 12:00:58 26° 114° (ESE) 12:04:57 436.795
CANX-2 25 Apr 11:59:06 12:00:18 11° 300° (WNW) 12:01:17 2200.000
CINEMA 3 25 Apr 12:05:26 12:09:26 24° 294° (WNW) 12:13:24 145.822/145.860
TIGRISAT 25 Apr 12:05:39 12:09:36 29° 266° (W) 12:13:36 435.000
CUBEBUG 2 25 Apr 12:07:38 12:12:01 36° 291° (WNW) 12:16:21 437.445
DX 1 25 Apr 12:07:52 12:12:15 82° 285° (WNW) 12:16:37 434.975-435.025
AAUSAT CUBESAT 2 25 Apr 12:08:50 12:11:08 14° 297° (WNW) 12:13:17 437.432
UNISAT 6 25 Apr 12:09:55 12:13:45 26° 267° (W) 12:17:35 437.425
NANOSAT C BR1 25 Apr 12:12:46 12:16:46 42° 262° (W) 12:20:48 145.865
POPSAT HIP 1 25 Apr 12:15:48 12:19:46 39° 263° (W) 12:23:44 437.405
Cosmos 2491 25 Apr 12:16:38 12:24:25 35° 275° (W) 12:31:59 435.465 / 435.565
AIST 1 25 Apr 12:24:05 12:28:17 56° 78° (ENE) 12:32:30
Cosmos 2504 25 Apr 12:30:02 12:34:04 15° 75° (ENE) 12:38:39 435.465 / 435.565
ESTCUBE 1 25 Apr 12:31:49 12:36:09 47° 99° (E) 12:40:30 437.505/2401.250
BEESAT 3 25 Apr 12:34:15 12:38:21 68° 238° (WSW) 12:42:22 437.485
50 SAT 25 Apr 12:34:24 12:38:29 77° 285° (WNW) 12:42:30 437.505
BEESAT 2 25 Apr 12:34:59 12:39:08 80° 236° (WSW) 12:43:12 435.950
UWE-3 25 Apr 12:35:14 12:39:04 24° 294° (WNW) 12:42:47 435.000/436.395/437.385
TISAT 1 25 Apr 12:39:49 12:40:52 11° 87° (E) 12:42:10 437.305
BUGSAT 1 25 Apr 12:43:37 12:47:04 27° 265° (W) 12:50:29 437.445
FUNcube-1 25 Apr 12:46:10 12:49:50 23° 294° (WNW) 12:53:24 145.935
POLYITAN 1 25 Apr 12:46:28 12:49:35 19° 269° (W) 12:52:37 437.675
DUCHIFAT 1 25 Apr 12:48:06 12:51:10 19° 269° (W) 12:54:10 145.980
ISS 25 Apr 12:50:53 12:53:47 31° 140° (SE) 12:56:44 145.825
UKube-1 25 Apr 12:52:05 12:55:56 31° 292° (WNW) 12:59:44 .
HO-68 25 Apr 13:06:06 13:09:07 13° 314° (NW) 13:11:48 435.675
SPROUT 25 Apr 13:06:31 13:10:14 28° 94° (E) 13:13:59 437.525
QB50P1 25 Apr 13:06:44 13:08:39 12° 272° (W) 13:10:20 145.935-145.965
HUMSAT D 25 Apr 13:10:09 13:13:39 23° 294° (WNW) 13:17:02 437.325/437.525
ZACube-1 25 Apr 13:12:22 13:14:50 14° 299° (WNW) 13:17:07 437.345
VELOX 1 25 Apr 13:13:33 13:17:40 37° 290° (WNW) 13:21:44 145.980
CUBEBUG 1 25 Apr 13:19:58 13:24:17 61° 287° (WNW) 13:28:36 437.445
YUBILEINY 25 Apr 13:25:00 13:32:58 35° 294° (WNW) 13:40:48 435.215
RS-15 25 Apr 13:28:08 13:34:00 17° 99° (E) 13:40:40 29.354- 29.394
AISAT 25 Apr 13:31:37 13:35:17 25° 294° (WNW) 13:38:54 437.250
AIST 2 25 Apr 13:32:47 13:37:01 64° 238° (WSW) 13:41:08 435.215
Oscar 19 25 Apr 13:36:28 13:41:26 52° 71° (ENE) 13:46:29 437.125/150
SO-50 25 Apr 13:36:44 13:41:18 47° 313° (NW) 13:45:59 436.795
DX 1 25 Apr 13:47:31 13:47:50 10° 302° (WNW) 13:47:55 434.975-435.025
AIST 1 25 Apr 14:03:20 14:05:31 13° 275° (W) 14:07:30
ITUPSAT 1 25 Apr 14:07:50 14:10:46 17° 89° (E) 14:13:53 437.325
ESTCUBE 1 25 Apr 14:09:27 14:12:45 20° 296° (WNW) 14:15:56 437.505/2401.250
ITAMSAT 1 25 Apr 14:10:40 14:15:19 35° 67° (ENE) 14:20:02 435.822/435.867
TISAT 1 25 Apr 14:13:00 14:17:15 74° 285° (WNW) 14:21:30 437.305
Cosmos 2504 25 Apr 14:17:20 14:26:07 69° 94° (E) 14:34:50 435.465 / 435.565
JAS-2 25 Apr 14:18:16 14:21:12 13° 50° (NE) 14:24:29 435.910
AO-7 25 Apr 14:22:23 14:27:41 20° 47° (NE) 14:33:16 29.400- 29.500
ISS 25 Apr 14:26:54 14:30:04 46° 338° (NNW) 14:33:15 145.825
Gurwin Techsat 1B 25 Apr 14:37:45 14:42:53 52° 71° (ENE) 14:48:04 435.225
BEESAT 25 Apr 14:37:58 14:42:15 33° 96° (E) 14:46:33 436.000
SWISSCUBE 25 Apr 14:40:20 14:44:46 37° 97° (E) 14:49:10 437.505
SPROUT 25 Apr 14:42:31 14:46:19 30° 291° (WNW) 14:50:04 437.525
Oscar 19 25 Apr 15:17:09 15:21:09 22° 269° (W) 15:25:02 437.125/150
SO-50 25 Apr 15:20:49 15:23:05 13° 335° (NNW) 15:25:17 436.795
RS-15 25 Apr 15:33:46 15:44:33 74° 120° (ESE) 15:55:38 29.354- 29.394
STARS 25 Apr 15:35:18 15:37:53 15° 89° (E) 15:40:39 437.465
ITUPSAT 1 25 Apr 15:44:26 15:49:08 59° 288° (WNW) 15:53:48 437.325
ITAMSAT 1 25 Apr 15:50:12 15:54:51 32° 265° (W) 15:59:28 435.822/435.867
GONETS M04 25 Apr 15:53:07 15:58:45 20° 78° (ENE) 16:04:48
JAS-2 25 Apr 15:57:20 16:04:52 53° 69° (ENE) 16:12:10 435.910
HORYU 2 25 Apr 15:59:46 16:04:12 65° 73° (ENE) 16:08:42 437.375
ISS 25 Apr 16:04:11 16:06:57 25° 358° (N) 16:09:43 145.825
PCSat 25 Apr 16:07:42 16:10:37 15° 31° (NNE) 16:13:39 145.827
AO-7 25 Apr 16:11:01 16:19:14 73° 68° (ENE) 16:27:31 29.400- 29.500
Cosmos 2504 25 Apr 16:12:38 16:20:21 31° 296° (WNW) 16:27:45 435.465 / 435.565
KKS-1 25 Apr 16:15:02 16:19:30 61° 101° (E) 16:23:57 437.445
BEESAT 25 Apr 16:15:52 16:20:04 30° 293° (WNW) 16:24:09 436.000
SWISSCUBE 25 Apr 16:18:29 16:22:29 27° 294° (WNW) 16:26:25 437.505
Gurwin Techsat 1B 25 Apr 16:19:03 16:23:13 22° 269° (W) 16:27:16 435.225
CUSAT 1 25 Apr 16:57:44 16:58:53 11° 79° (E) 17:00:21 437.405
CUTE-I 25 Apr 17:02:22 17:03:27 11° 55° (NE) 17:04:50 437.470
STARS 25 Apr 17:10:23 17:14:47 57° 287° (WNW) 17:19:08 437.465
Cubesat XI-IV 25 Apr 17:10:37 17:12:53 13° 57° (ENE) 17:15:23 437.490
VERMONT LUNAR 25 Apr 17:16:53 17:18:39 14° 154° (SSE) 17:20:28 437.305
DANDE 25 Apr 17:33:58 17:36:24 18° 84° (E) 17:39:26 436.750
HORYU 2 25 Apr 17:38:59 17:41:23 14° 272° (W) 17:43:35 437.375
ISS 25 Apr 17:40:48 17:43:53 37° 18° (NNE) 17:46:58 145.825
JAS-2 25 Apr 17:42:50 17:50:05 38° 266° (W) 17:57:02 435.910
GONETS M04 25 Apr 17:45:42 17:54:30 90° 17° (NNE) 18:03:24
RS-15 25 Apr 17:47:37 17:57:54 43° 327° (NNW) 18:08:28 29.354- 29.394
PCSat 25 Apr 17:49:54 17:55:16 58° 53° (NE) 18:00:37 145.827
KKS-1 25 Apr 17:52:52 17:55:43 16° 298° (WNW) 17:58:25 437.445
AO-7 25 Apr 18:06:01 18:12:52 27° 268° (W) 18:19:30 29.400- 29.500
MOZHAYETS 4 25 Apr 18:16:44 18:21:22 82° 105° (ESE) 18:25:56
CUSAT 1 25 Apr 18:36:54 18:40:33 59° 285° (WNW) 18:45:29 437.405
CUTE-I 25 Apr 18:37:23 18:42:39 66° 73° (ENE) 18:47:57 437.470
Cosmos 2499 25 Apr 18:39:56 18:47:57 42° 88° (E) 18:55:53 435.465 / 435.565
SO-50 25 Apr 18:46:38 18:48:45 13° 24° (NNE) 18:51:00 436.795
Cubesat XI-IV 25 Apr 18:46:54 18:52:14 80° 74° (ENE) 18:57:36 437.490
VERMONT LUNAR 25 Apr 18:52:30 18:55:34 32° 169° (S) 18:58:39 437.305
DANDE 25 Apr 19:16:06 19:19:17 30° 293° (WNW) 19:23:22 436.750
ISS 25 Apr 19:17:10 19:20:19 46° 216° (SW) 19:23:26 145.825
PHONESAT 2.4 25 Apr 19:19:15 19:22:20 27° 164° (SSE) 19:25:26 2401.200-2431.200
M-CUBED/EXP-1 PRIME 25 Apr 19:24:24 19:28:03 28° 99° (E) 19:31:29 437.505
PCSat 25 Apr 19:34:06 19:38:20 23° 252° (WSW) 19:42:25 145.827
GONETS M04 25 Apr 19:46:11 19:52:50 22° 302° (WNW) 19:59:10
CUTE 1.7 + AOD 2 25 Apr 19:52:27 19:53:22 11° 60° (ENE) 19:54:30 437.475
CUBESAT XI-V 25 Apr 19:52:46 19:57:22 67° 101° (E) 20:01:57 437.345
MOZHAYETS 4 25 Apr 19:55:50 19:58:00 13° 300° (WNW) 19:59:58
STRAND 1 25 Apr 19:56:10 20:00:46 34° 96° (E) 20:05:25 437.568
HO-68 25 Apr 19:59:29 20:05:33 32° 59° (ENE) 20:11:45 435.675
RS-15 25 Apr 20:05:01 20:14:10 28° 0° (N) 20:23:37 29.354- 29.394
AUBIESAT-1 25 Apr 20:06:34 20:10:48 73° 106° (ESE) 20:14:40 437.475
GOMX 1 25 Apr 20:11:14 20:14:26 22° 65° (ENE) 20:17:51 467.674
CUTE-I 25 Apr 20:19:41 20:23:18 18° 271° (W) 20:26:43 437.470
BRITE-PL 25 Apr 20:22:29 20:26:23 41° 70° (ENE) 20:30:28 437.365/2234.400
SO-50 25 Apr 20:25:51 20:30:37 44° 46° (NE) 20:35:21 436.795
PRISM 25 Apr 20:28:23 20:32:31 85° 285° (WNW) 20:36:36 437.425
VERMONT LUNAR 25 Apr 20:29:33 20:32:42 35° 187° (S) 20:35:50 437.305
Cubesat XI-IV 25 Apr 20:30:08 20:33:05 14° 273° (W) 20:35:46 437.490
Cosmos 2499 25 Apr 20:32:28 20:41:03 50° 287° (WNW) 20:49:19 435.465 / 435.565
COMPASS 1 25 Apr 20:42:35 20:45:54 23° 67° (ENE) 20:49:19 437.405
DOVE 4 25 Apr 20:47:22 20:51:12 33° 69° (ENE) 20:55:16 437.250
PHONESAT 2.4 25 Apr 20:56:48 21:00:11 40° 181° (S) 21:03:35 2401.200-2431.200
Oscar 11 25 Apr 20:57:43 21:00:14 16° 63° (ENE) 21:02:53 145.826/435.025
M-CUBED/EXP-1 PRIME 25 Apr 20:59:10 21:02:55 29° 299° (WNW) 21:06:21 437.505
DELFI C3 25 Apr 21:02:58 21:04:31 12° 62° (ENE) 21:06:14 145.870
SEEDS 25 Apr 21:07:04 21:11:12 49° 72° (ENE) 21:15:22 437.485
CANX-2 25 Apr 21:15:13 21:19:31 80° 77° (ENE) 21:23:52 2200.000
AAUSAT CUBESAT 2 25 Apr 21:24:19 21:28:26 53° 73° (ENE) 21:32:35 437.432
CUTE 1.7 + AOD 2 25 Apr 21:24:22 21:28:40 90° 255° (WSW) 21:33:01 437.475
CUBESAT XI-V 25 Apr 21:31:34 21:34:20 16° 298° (WNW) 21:36:58 437.345
CINEMA 3 25 Apr 21:31:37 21:35:48 49° 72° (ENE) 21:40:15 145.822/145.860
CUBEBUG 2 25 Apr 21:31:39 21:35:22 28° 67° (ENE) 21:39:16 437.445
DX 1 25 Apr 21:31:53 21:33:50 13° 61° (ENE) 21:35:58 434.975-435.025
Cosmos 2491 25 Apr 21:33:51 21:35:51 11° 72° (ENE) 21:38:34 435.465 / 435.565
YUBILEINY 25 Apr 21:34:57 21:42:30 32° 65° (ENE) 21:50:10 435.215
STRAND 1 25 Apr 21:35:25 21:39:57 33° 294° (WNW) 21:44:26 437.568
AUBIESAT-1 25 Apr 21:42:50 21:45:00 14° 306° (NW) 21:46:56 437.475
HO-68 25 Apr 21:45:51 21:52:56 60° 258° (WSW) 22:00:04 435.675
GOMX 1 25 Apr 21:48:27 21:52:23 38° 264° (W) 21:56:30 467.674
UWE-3 25 Apr 21:57:24 22:01:30 41° 70° (ENE) 22:05:46 435.000/436.395/437.385
O/OREOS (USA 219) 25 Apr 22:01:54 22:03:57 13° 100° (E) 22:06:14 437.305
BRITE-PL 25 Apr 22:02:18 22:05:15 18° 270° (W) 22:08:10 437.365/2234.400
SO-50 25 Apr 22:06:43 22:11:02 30° 245° (WSW) 22:15:15 436.795
FUNcube-1 25 Apr 22:07:02 22:11:06 41° 71° (ENE) 22:15:20 145.935
VERMONT LUNAR 25 Apr 22:07:19 22:09:42 18° 203° (SSW) 22:12:01 437.305
UKube-1 25 Apr 22:12:56 22:16:41 30° 68° (ENE) 22:20:30 .
COMPASS 1 25 Apr 22:17:31 22:21:27 35° 264° (W) 22:25:21 437.405
RS-15 25 Apr 22:19:54 22:30:29 43° 33° (NNE) 22:41:38 29.354- 29.394
DOVE 4 25 Apr 22:25:34 22:29:06 24° 268° (W) 22:32:44 437.250
HUMSAT D 25 Apr 22:27:49 22:31:37 34° 69° (ENE) 22:35:32 437.325/437.525
Oscar 11 25 Apr 22:31:40 22:35:58 60° 259° (W) 22:40:19 145.826/435.025
ZACube-1 25 Apr 22:32:07 22:36:28 76° 75° (ENE) 22:40:57 437.345
Cosmos 2499 25 Apr 22:34:13 22:36:50 11° 312° (NW) 22:38:49 435.465 / 435.565
PHONESAT 2.4 25 Apr 22:35:00 22:38:02 26° 197° (SSW) 22:41:03 2401.200-2431.200
DELFI C3 25 Apr 22:35:05 22:39:09 71° 258° (WSW) 22:43:15 145.870
VELOX 1 25 Apr 22:37:07 22:40:48 27° 67° (ENE) 22:44:33 145.980
CUBEBUG 1 25 Apr 22:43:40 22:46:15 16° 63° (ENE) 22:48:59 437.445
SEEDS 25 Apr 22:44:32 22:47:20 16° 270° (W) 22:50:00 437.485
AISAT 25 Apr 22:54:30 22:58:36 41° 70° (ENE) 23:02:47 437.250
CANX-2 25 Apr 22:55:27 22:56:08 10° 275° (W) 22:56:33 2200.000
AAUSAT CUBESAT 2 25 Apr 23:01:56 23:04:26 15° 271° (W) 23:06:48 437.432
DX 1 25 Apr 23:05:15 23:09:34 73° 256° (WSW) 23:13:56 434.975-435.025
ANTELSAT 25 Apr 23:05:24 23:08:33 18° 89° (E) 23:11:49 437.575/2403.000
CUBEBUG 2 25 Apr 23:08:04 23:12:00 31° 266° (W) 23:16:02 437.445
CINEMA 3 25 Apr 23:10:25 23:13:25 17° 271° (W) 23:16:22 145.822/145.860
50 SAT 25 Apr 23:21:19 23:25:19 80° 77° (ENE) 23:29:24 437.505
Cosmos 2491 25 Apr 23:22:32 23:31:01 61° 92° (E) 23:39:38 435.465 / 435.565
YUBILEINY 25 Apr 23:31:24 23:40:02 63° 267° (W) 23:48:32 435.215
ESTCUBE 1 25 Apr 23:33:15 23:37:40 56° 73° (ENE) 23:42:06 437.505/2401.250
TISAT 1 25 Apr 23:34:22 23:35:52 12° 61° (ENE) 23:37:34 437.305
UWE-3 25 Apr 23:34:53 23:38:17 21° 269° (W) 23:41:38 435.000/436.395/437.385
QB50P2 25 Apr 23:38:16 23:41:09 18° 91° (E) 23:44:11 145.880/145.840
O/OREOS (USA 219) 25 Apr 23:38:17 23:42:52 70° 296° (WNW) 23:47:26 437.305
FUNcube-1 25 Apr 23:44:18 23:47:40 21° 269° (W) 23:51:00 145.935
UKube-1 25 Apr 23:49:06 23:52:50 27° 265° (W) 23:56:31 .
TIGRISAT 25 Apr 23:54:38 23:59:15 52° 99° (E) 00:03:49 435.000
NANOSAT C BR1 25 Apr 23:55:51 23:59:27 26° 94° (E) 00:03:06 145.865
UNISAT 6 25 Apr 23:58:56 00:03:37 60° 100° (E) 00:08:14 437.425
POPSAT HIP 1 25 Apr 23:59:00 00:02:43 28° 95° (E) 00:06:29 437.405
SPROUT 26 Apr 00:02:47 00:06:25 28° 68° (ENE) 00:10:06 437.525
HUMSAT D 26 Apr 00:03:59 00:07:28 24° 267° (W) 00:10:56 437.325/437.525
Cosmos 2504 26 Apr 00:09:04 00:15:44 28° 63° (ENE) 00:22:11 435.465 / 435.565
ZACube-1 26 Apr 00:11:59 00:13:31 11° 275° (W) 00:14:48 437.345
VELOX 1 26 Apr 00:13:20 00:17:17 32° 264° (W) 00:21:14 145.980
CUBEBUG 1 26 Apr 00:17:58 00:22:14 57° 260° (W) 00:26:30 437.445
BUGSAT 1 26 Apr 00:23:08 00:26:57 35° 97° (E) 00:30:49 437.445
POLYITAN 1 26 Apr 00:28:26 00:32:43 60° 101° (E) 00:36:59 437.675
DUCHIFAT 1 26 Apr 00:29:22 00:33:36 58° 101° (E) 00:37:50 145.980
AISAT 26 Apr 00:32:04 00:35:25 21° 268° (W) 00:38:41 437.250
RS-15 26 Apr 00:32:34 00:44:05 78° 239° (WSW) 00:56:05 29.354- 29.394
ANTELSAT 26 Apr 00:41:05 00:45:43 54° 288° (WNW) 00:50:16 437.575/2403.000
QB50P1 26 Apr 00:46:53 00:51:13 88° 277° (W) 00:55:31 145.935-145.965
AIST 1 26 Apr 00:55:56 00:59:39 30° 91° (E) 01:03:25
TISAT 1 26 Apr 01:06:57 01:11:08 76° 258° (WSW) 01:15:21 437.305
ESTCUBE 1 26 Apr 01:12:05 01:14:57 16° 271° (W) 01:17:39 437.505/2401.250
QB50P2 26 Apr 01:13:12 01:17:20 46° 289° (WNW) 01:21:27 145.880/145.840
ITUPSAT 1 26 Apr 01:16:23 01:20:14 25° 65° (ENE) 01:24:11 437.325
Cosmos 2491 26 Apr 01:20:44 01:28:30 33° 295° (WNW) 01:36:11 435.465 / 435.565
O/OREOS (USA 219) 26 Apr 01:21:55 01:23:15 11° 317° (NW) 01:24:25 437.305
NANOSAT C BR1 26 Apr 01:31:31 01:35:20 31° 291° (WNW) 01:39:06 145.865
YUBILEINY 26 Apr 01:32:00 01:35:12 12° 287° (WNW) 01:37:44 435.215
TIGRISAT 26 Apr 01:32:11 01:35:39 20° 296° (WNW) 01:38:57 435.000
POPSAT HIP 1 26 Apr 01:34:50 01:38:35 29° 292° (WNW) 01:42:16 437.405
UNISAT 6 26 Apr 01:36:45 01:39:58 18° 297° (WNW) 01:43:02 437.425
SPROUT 26 Apr 01:38:42 01:42:28 29° 265° (W) 01:46:12 437.525
BEESAT 26 Apr 01:46:15 01:50:49 47° 70° (ENE) 01:55:26 436.000
Oscar 19 26 Apr 01:47:16 01:50:14 16° 88° (E) 01:53:25 437.125/150
SWISSCUBE 26 Apr 01:48:43 01:53:22 54° 71° (ENE) 01:58:03 437.505
BUGSAT 1 26 Apr 01:58:59 02:02:16 23° 293° (WNW) 02:05:30 437.445
GONETS M04 26 Apr 02:00:14 02:02:29 11° 46° (NE) 02:05:20
Cosmos 2504 26 Apr 02:01:56 02:10:00 66° 267° (W) 02:17:24 435.465 / 435.565
POLYITAN 1 26 Apr 02:05:36 02:08:13 16° 297° (WNW) 02:10:42 437.675
DUCHIFAT 1 26 Apr 02:06:24 02:09:01 16° 297° (WNW) 02:11:29 145.980
QB50P1 26 Apr 02:25:34 02:26:27 10° 300° (WNW) 02:27:07 145.935-145.965
BEESAT 3 26 Apr 02:31:06 02:33:01 13° 111° (ESE) 02:35:07 437.485
BEESAT 2 26 Apr 02:33:21 02:34:42 12° 110° (ESE) 02:36:16 435.950
AIST 1 26 Apr 02:33:44 02:37:21 25° 289° (WNW) 02:40:53
STARS 26 Apr 02:34:20 02:37:19 19° 64° (ENE) 02:40:26 437.465
RS-15 26 Apr 02:46:57 02:55:00 21° 259° (W) 03:02:32 29.354- 29.394
Gurwin Techsat 1B 26 Apr 02:52:56 02:56:21 18° 89° (E) 02:59:57 435.225
ITUPSAT 1 26 Apr 02:53:25 02:57:57 41° 262° (W) 03:02:29 437.325
KKS-1 26 Apr 03:15:00 03:19:24 70° 74° (ENE) 03:23:51 437.445
Oscar 19 26 Apr 03:25:01 03:30:13 72° 287° (WNW) 03:35:24 437.125/150
BEESAT 26 Apr 03:25:18 03:28:57 21° 268° (W) 03:32:30 436.000
CUSAT 1 26 Apr 03:27:33 03:33:29 26° 64° (ENE) 03:40:13 437.405
SWISSCUBE 26 Apr 03:28:15 03:31:37 18° 270° (W) 03:34:50 437.505
AIST 2 26 Apr 03:33:50 03:36:33 17° 112° (ESE) 03:39:24 435.215
MOZHAYETS 4 26 Apr 03:46:30 03:48:22 13° 60° (ENE) 03:50:27
HORYU 2 26 Apr 03:51:43 03:52:43 11° 86° (E) 03:54:00 437.375
GONETS M04 26 Apr 03:53:38 04:02:12 51° 73° (ENE) 04:10:46
Cosmos 2504 26 Apr 03:59:02 04:01:48 12° 287° (WNW) 04:03:58 435.465 / 435.565
ITAMSAT 1 26 Apr 04:00:10 04:05:22 77° 102° (ESE) 04:10:34 435.822/435.867
BEESAT 3 26 Apr 04:06:28 04:10:33 68° 307° (NW) 04:14:41 437.485
DANDE 26 Apr 04:08:03 04:14:41 38° 70° (ENE) 04:22:26 436.750
BEESAT 2 26 Apr 04:08:09 04:12:17 78° 306° (NW) 04:16:28 435.950
STARS 26 Apr 04:09:11 04:13:27 50° 260° (W) 04:17:46 437.465
AO-7 26 Apr 04:11:39 04:17:10 20° 88° (E) 04:23:06 29.400- 29.500
Cosmos 2499 26 Apr 04:30:30 04:34:33 15° 53° (NE) 04:38:50 435.465 / 435.565
Gurwin Techsat 1B 26 Apr 04:31:36 04:36:54 66° 288° (WNW) 04:42:09 435.225
JAS-2 26 Apr 04:51:12 04:56:52 33° 92° (E) 05:02:01 435.910
KKS-1 26 Apr 04:54:40 04:56:38 12° 273° (W) 04:58:24 437.445
Oscar 19 26 Apr 05:06:58 05:08:46 11° 304° (NW) 05:10:18 437.125/150
